TimeCST,TemperatureF,Dew PointF,Humidity,Sea Level PressureIn,VisibilityMPH,Wind Direction,Wind SpeedMPH,Gust SpeedMPH,PrecipitationIn,Events,Conditions,WindDirDegrees,DateUTC
12:15 AM,23.0,14.0,68,29.96,10.0,NW,9.2,-,N/A,,Clear,310,2012-12-11 06:15:00
12:55 AM,21.2,14.0,74,29.97,10.0,NW,9.2,-,N/A,,Clear,320,2012-12-11 06:55:00
1:15 AM,21.2,14.0,74,29.98,10.0,NW,10.4,-,N/A,,Clear,310,2012-12-11 07:15:00
1:35 AM,21.2,14.0,74,29.98,10.0,NW,11.5,-,N/A,,Clear,310,2012-12-11 07:35:00
1:55 AM,21.2,14.0,74,29.98,10.0,NW,9.2,-,N/A,,Scattered Clouds,310,2012-12-11 07:55:00
2:35 AM,23.0,17.6,80,29.98,10.0,WNW,9.2,-,N/A,,Overcast,300,2012-12-11 08:35:00
2:55 AM,21.2,17.6,86,29.99,10.0,NW,10.4,-,N/A,,Mostly Cloudy,320,2012-12-11 08:55:00
3:15 AM,21.2,15.8,80,29.99,10.0,NW,10.4,-,N/A,,Clear,320,2012-12-11 09:15:00
3:35 AM,19.4,15.8,86,29.99,10.0,NW,9.2,-,N/A,,Clear,320,2012-12-11 09:35:00
3:55 AM,19.4,15.8,86,29.99,10.0,NW,10.4,-,N/A,,Clear,310,2012-12-11 09:55:00
4:15 AM,19.4,14.0,80,29.99,10.0,NW,8.1,-,N/A,,Clear,310,2012-12-11 10:15:00
4:35 AM,17.6,14.0,86,29.99,10.0,WNW,9.2,-,N/A,,Clear,300,2012-12-11 10:35:00
4:55 AM,19.4,14.0,80,29.99,10.0,NW,9.2,-,N/A,,Clear,320,2012-12-11 10:55:00
5:15 AM,17.6,14.0,86,29.99,10.0,NW,9.2,-,N/A,,Clear,310,2012-12-11 11:15:00
5:35 AM,14.0,12.2,93,30.00,10.0,WNW,8.1,-,N/A,,Clear,290,2012-12-11 11:35:00
5:55 AM,14.0,12.2,93,30.00,10.0,WNW,6.9,-,N/A,,Clear,290,2012-12-11 11:55:00
6:15 AM,14.0,12.2,93,30.00,10.0,West,8.1,-,N/A,,Clear,260,2012-12-11 12:15:00
6:35 AM,12.2,10.4,92,30.01,10.0,West,5.8,-,N/A,,Clear,260,2012-12-11 12:35:00
6:55 AM,12.2,10.4,92,30.02,10.0,WSW,5.8,-,N/A,,Clear,250,2012-12-11 12:55:00
7:15 AM,12.2,10.4,92,30.02,10.0,WSW,6.9,-,N/A,,Clear,250,2012-12-11 13:15:00
7:55 AM,10.4,8.6,92,30.03,10.0,WSW,8.1,-,N/A,,Clear,250,2012-12-11 13:55:00
8:15 AM,10.4,8.6,92,30.03,10.0,WSW,9.2,-,N/A,,Clear,250,2012-12-11 14:15:00
8:55 AM,17.6,14.0,86,30.03,10.0,WSW,5.8,-,N/A,,Clear,250,2012-12-11 14:55:00
9:15 AM,21.2,17.6,86,30.04,10.0,West,6.9,-,N/A,,Clear,260,2012-12-11 15:15:00
9:55 AM,28.4,19.4,69,30.04,10.0,West,9.2,-,N/A,,Clear,260,2012-12-11 15:55:00
10:15 AM,30.2,21.2,69,30.04,10.0,West,11.5,-,N/A,,Clear,260,2012-12-11 16:15:00
10:35 AM,32.0,21.2,64,30.04,10.0,West,11.5,-,N/A,,Clear,270,2012-12-11 16:35:00
10:55 AM,33.8,23.0,65,30.04,10.0,West,11.5,-,N/A,,Clear,260,2012-12-11 16:55:00
11:15 AM,35.6,21.2,56,30.04,10.0,WSW,13.8,-,N/A,,Clear,250,2012-12-11 17:15:00
11:35 AM,37.4,19.4,48,30.03,10.0,West,12.7,-,N/A,,Clear,270,2012-12-11 17:35:00
11:55 AM,39.2,17.6,42,30.02,10.0,WSW,13.8,-,N/A,,Clear,240,2012-12-11 17:55:00
12:15 PM,41.0,14.0,33,30.01,10.0,WSW,12.7,16.1,N/A,,Clear,250,2012-12-11 18:15:00
12:35 PM,41.0,14.0,33,30.00,10.0,West,11.5,-,N/A,,Clear,260,2012-12-11 18:35:00
12:55 PM,42.8,15.8,34,29.99,10.0,West,12.7,-,N/A,,Clear,260,2012-12-11 18:55:00
1:15 PM,42.8,15.8,34,29.97,10.0,WSW,16.1,19.6,N/A,,Clear,240,2012-12-11 19:15:00
1:35 PM,42.8,15.8,34,29.96,10.0,WSW,15.0,20.7,N/A,,Clear,250,2012-12-11 19:35:00
1:55 PM,42.8,17.6,36,29.95,10.0,SW,15.0,-,N/A,,Clear,220,2012-12-11 19:55:00
2:15 PM,44.6,17.6,34,29.94,10.0,SW,9.2,-,N/A,,Clear,230,2012-12-11 20:15:00
2:35 PM,42.8,15.8,34,29.93,10.0,WSW,15.0,21.9,N/A,,Clear,250,2012-12-11 20:35:00
2:55 PM,44.6,15.8,31,29.92,10.0,WSW,15.0,20.7,N/A,,Clear,240,2012-12-11 20:55:00
3:15 PM,44.6,15.8,31,29.92,10.0,WSW,12.7,17.3,N/A,,Clear,240,2012-12-11 21:15:00
3:35 PM,44.6,17.6,34,29.92,10.0,SW,17.3,21.9,N/A,,Clear,220,2012-12-11 21:35:00
3:55 PM,42.8,17.6,36,29.92,10.0,SW,18.4,-,N/A,,Clear,220,2012-12-11 21:55:00
4:15 PM,42.8,17.6,36,29.93,10.0,SW,15.0,-,N/A,,Clear,220,2012-12-11 22:15:00
4:35 PM,42.8,15.8,34,29.92,10.0,SW,12.7,-,N/A,,Clear,230,2012-12-11 22:35:00
4:55 PM,41.0,15.8,36,29.92,10.0,SSW,11.5,-,N/A,,Clear,210,2012-12-11 22:55:00
5:15 PM,37.4,17.6,45,29.92,10.0,SSW,9.2,-,N/A,,Clear,210,2012-12-11 23:15:00
5:35 PM,35.6,15.8,44,29.92,10.0,SSW,10.4,-,N/A,,Clear,210,2012-12-11 23:35:00
5:55 PM,33.8,15.8,48,29.92,10.0,SSW,9.2,-,N/A,,Clear,200,2012-12-11 23:55:00
6:15 PM,33.8,17.6,52,29.92,10.0,SSW,10.4,-,N/A,,Clear,210,2012-12-12 00:15:00
6:35 PM,32.0,17.6,55,29.92,10.0,SSW,11.5,-,N/A,,Clear,210,2012-12-12 00:35:00
6:55 PM,32.0,19.4,60,29.92,10.0,SSW,10.4,-,N/A,,Clear,210,2012-12-12 00:55:00
7:15 PM,32.0,17.6,55,29.92,10.0,SSW,10.4,-,N/A,,Clear,210,2012-12-12 01:15:00
7:35 PM,32.0,17.6,55,29.92,10.0,SSW,10.4,-,N/A,,Clear,210,2012-12-12 01:35:00
7:55 PM,32.0,17.6,55,29.92,10.0,SSW,10.4,-,N/A,,Clear,200,2012-12-12 01:55:00
8:15 PM,30.2,17.6,60,29.93,10.0,SSW,9.2,-,N/A,,Clear,210,2012-12-12 02:15:00
8:35 PM,30.2,17.6,60,29.93,10.0,SSW,10.4,-,N/A,,Clear,210,2012-12-12 02:35:00
8:55 PM,28.4,17.6,64,29.93,10.0,SSW,11.5,-,N/A,,Clear,210,2012-12-12 02:55:00
9:35 PM,28.4,17.6,64,29.92,10.0,SSW,10.4,-,N/A,,Clear,210,2012-12-12 03:35:00
9:55 PM,28.4,17.6,64,29.92,10.0,SSW,11.5,-,N/A,,Clear,210,2012-12-12 03:55:00
10:15 PM,26.6,17.6,69,29.92,10.0,SSW,10.4,-,N/A,,Clear,200,2012-12-12 04:15:00
10:35 PM,26.6,17.6,69,29.91,10.0,SSW,10.4,-,N/A,,Clear,210,2012-12-12 04:35:00
10:55 PM,26.6,17.6,69,29.91,10.0,SSW,11.5,-,N/A,,Clear,200,2012-12-12 04:55:00
11:15 PM,26.6,17.6,69,29.91,10.0,SSW,10.4,-,N/A,,Clear,200,2012-12-12 05:15:00
11:35 PM,26.6,17.6,69,29.91,10.0,SSW,10.4,-,N/A,,Clear,210,2012-12-12 05:35:00
11:55 PM,26.6,15.8,64,29.91,10.0,SSW,11.5,-,N/A,,Clear,210,2012-12-12 05:55:00